Time,TemperatureF,DewpointF,PressureIn,WindDirection,WindDirectionDegrees,WindSpeedMPH,WindSpeedGustMPH,Humidity,HourlyPrecipIn,Conditions,Clouds,dailyrainin,SoftwareType,DateUTC
2016-02-10 00:04:00,11.0,1.0,-100.00,NNW,331,12.0,21.0,62,-99.99,,,-99.99,,2016-02-10 06:04:00,
2016-02-10 00:13:00,11.0,1.0,-100.00,NNW,331,12.0,21.0,62,-99.99,,,-99.99,,2016-02-10 06:13:00,
2016-02-10 00:34:00,11.0,1.0,-100.00,NW,321,13.0,21.0,64,-99.99,,,-99.99,,2016-02-10 06:34:00,
2016-02-10 00:44:00,11.0,1.0,-100.00,NW,321,13.0,21.0,64,-99.99,,,-99.99,,2016-02-10 06:44:00,
2016-02-10 01:04:00,11.0,1.0,-100.00,NW,321,13.0,21.0,64,-99.99,,,-99.99,,2016-02-10 07:04:00,
2016-02-10 01:13:00,11.0,1.0,-100.00,NW,321,13.0,21.0,64,-99.99,,,-99.99,,2016-02-10 07:13:00,
2016-02-10 01:34:00,11.0,1.0,-100.00,NW,323,12.0,21.0,64,-99.99,,,-99.99,,2016-02-10 07:34:00,
2016-02-10 01:44:00,11.0,1.0,-100.00,NW,323,12.0,21.0,64,-99.99,,,-99.99,,2016-02-10 07:44:00,
2016-02-10 01:54:00,11.0,1.0,-100.00,NW,323,12.0,21.0,64,-99.99,,,-99.99,,2016-02-10 07:54:00,
2016-02-10 02:04:00,11.0,1.0,-100.00,NW,323,12.0,21.0,64,-99.99,,,-99.99,,2016-02-10 08:04:00,
2016-02-10 02:13:00,11.0,1.0,-100.00,NW,323,12.0,21.0,64,-99.99,,,-99.99,,2016-02-10 08:13:00,
2016-02-10 02:34:00,10.0,1.0,-100.00,NW,316,14.0,19.0,67,-99.99,,,-99.99,,2016-02-10 08:34:00,
2016-02-10 02:44:00,10.0,1.0,-100.00,NW,316,14.0,19.0,67,-99.99,,,-99.99,,2016-02-10 08:44:00,
2016-02-10 02:54:00,10.0,1.0,-100.00,NW,316,14.0,19.0,67,-99.99,,,-99.99,,2016-02-10 08:54:00,
2016-02-10 03:03:00,10.0,1.0,-100.00,NW,316,14.0,19.0,67,-99.99,,,-99.99,,2016-02-10 09:03:00,
2016-02-10 03:13:00,10.0,1.0,-100.00,NW,316,14.0,19.0,67,-99.99,,,-99.99,,2016-02-10 09:13:00,
2016-02-10 03:34:00,9.0,7.0,-100.00,WNW,303,9.0,16.0,93,-99.99,,,-99.99,,2016-02-10 09:34:00,
2016-02-10 03:54:00,9.0,7.0,-100.00,WNW,303,9.0,16.0,93,-99.99,,,-99.99,,2016-02-10 09:54:00,
2016-02-10 04:03:00,9.0,7.0,-100.00,WNW,303,9.0,16.0,93,-99.99,,,-99.99,,2016-02-10 10:03:00,
2016-02-10 04:13:00,9.0,7.0,-100.00,WNW,303,9.0,16.0,93,-99.99,,,-99.99,,2016-02-10 10:13:00,
2016-02-10 04:34:00,9.0,7.0,-100.00,NW,304,11.0,16.0,91,-99.99,,,-99.99,,2016-02-10 10:34:00,
2016-02-10 04:44:00,9.0,7.0,-100.00,NW,304,11.0,16.0,91,-99.99,,,-99.99,,2016-02-10 10:44:00,
2016-02-10 04:56:00,9.0,7.0,-100.00,NW,304,11.0,16.0,91,-99.99,,,-99.99,,2016-02-10 10:56:00,
2016-02-10 05:04:00,9.0,7.0,-100.00,NW,304,11.0,16.0,91,-99.99,,,-99.99,,2016-02-10 11:04:00,
2016-02-10 05:13:00,9.0,7.0,-100.00,NW,304,11.0,16.0,91,-99.99,,,-99.99,,2016-02-10 11:13:00,
2016-02-10 05:34:00,8.0,4.0,-100.00,NW,310,12.0,19.0,84,-99.99,,,-99.99,,2016-02-10 11:34:00,
2016-02-10 05:44:00,8.0,4.0,-100.00,NW,310,12.0,19.0,84,-99.99,,,-99.99,,2016-02-10 11:44:00,
2016-02-10 05:54:00,8.0,4.0,-100.00,NW,310,12.0,19.0,84,-99.99,,,-99.99,,2016-02-10 11:54:00,
2016-02-10 06:04:00,8.0,4.0,-100.00,NW,310,12.0,19.0,84,-99.99,,,-99.99,,2016-02-10 12:04:00,
2016-02-10 06:13:00,8.0,4.0,-100.00,NW,310,12.0,19.0,84,-99.99,,,-99.99,,2016-02-10 12:13:00,
2016-02-10 06:34:00,6.0,2.0,-100.00,NW,304,11.0,15.0,84,-99.99,,,-99.99,,2016-02-10 12:34:00,
2016-02-10 07:04:00,6.0,2.0,-100.00,NW,304,11.0,15.0,84,-99.99,,,-99.99,,2016-02-10 13:04:00,
2016-02-10 07:13:00,6.0,2.0,-100.00,NW,304,11.0,15.0,84,-99.99,,,-99.99,,2016-02-10 13:13:00,
2016-02-10 07:34:00,4.0,1.0,-100.00,NW,310,11.0,16.0,87,-99.99,,,-99.99,,2016-02-10 13:34:00,
2016-02-10 07:45:00,4.0,1.0,-100.00,NW,310,11.0,16.0,87,-99.99,,,-99.99,,2016-02-10 13:45:00,
2016-02-10 08:03:00,4.0,1.0,-100.00,NW,310,11.0,16.0,87,-99.99,,,-99.99,,2016-02-10 14:03:00,
2016-02-10 08:13:00,4.0,1.0,-100.00,NW,310,11.0,16.0,87,-99.99,,,-99.99,,2016-02-10 14:13:00,
2016-02-10 08:36:00,6.0,0.0,-100.00,NW,307,8.0,13.0,77,-99.99,,,-99.99,,2016-02-10 14:36:00,
2016-02-10 08:54:00,6.0,0.0,-100.00,NW,307,8.0,13.0,77,-99.99,,,-99.99,,2016-02-10 14:54:00,
2016-02-10 09:03:00,6.0,0.0,-100.00,NW,307,8.0,13.0,77,-99.99,,,-99.99,,2016-02-10 15:03:00,
2016-02-10 09:13:00,6.0,0.0,-100.00,NW,307,8.0,13.0,77,-99.99,,,-99.99,,2016-02-10 15:13:00,
2016-02-10 09:14:00,8.0,0.0,-100.00,NW,311,9.0,16.0,69,-99.99,,,-99.99,,2016-02-10 15:14:00,
2016-02-10 09:34:00,8.0,0.0,-100.00,NW,311,9.0,16.0,69,-99.99,,,-99.99,,2016-02-10 15:34:00,
2016-02-10 09:45:00,8.0,0.0,-100.00,NW,311,9.0,16.0,69,-99.99,,,-99.99,,2016-02-10 15:45:00,
2016-02-10 10:14:00,11.0,-1.0,-100.00,NW,307,10.0,13.0,58,-99.99,,,-99.99,,2016-02-10 16:14:00,
2016-02-10 10:56:00,11.0,-1.0,-100.00,NW,307,10.0,13.0,58,-99.99,,,-99.99,,2016-02-10 16:56:00,
2016-02-10 11:04:00,11.0,-1.0,-100.00,NW,307,10.0,13.0,58,-99.99,,,-99.99,,2016-02-10 17:04:00,
2016-02-10 11:34:00,11.0,-2.0,-100.00,NW,317,8.0,16.0,54,-99.99,,,-99.99,,2016-02-10 17:34:00,
2016-02-10 11:45:00,11.0,-2.0,-100.00,NW,317,8.0,16.0,54,-99.99,,,-99.99,,2016-02-10 17:45:00,
2016-02-10 11:55:00,11.0,-2.0,-100.00,NW,317,8.0,16.0,54,-99.99,,,-99.99,,2016-02-10 17:55:00,
2016-02-10 12:05:00,11.0,-2.0,-100.00,NW,317,8.0,16.0,54,-99.99,,,-99.99,,2016-02-10 18:05:00,
2016-02-10 12:13:00,11.0,-2.0,-100.00,NW,317,8.0,16.0,54,-99.99,,,-99.99,,2016-02-10 18:13:00,
2016-02-10 12:45:00,13.0,-1.0,-100.00,NW,317,8.0,18.0,52,-99.99,,,-99.99,,2016-02-10 18:45:00,
2016-02-10 13:04:00,13.0,-1.0,-100.00,NW,317,8.0,18.0,52,-99.99,,,-99.99,,2016-02-10 19:04:00,
2016-02-10 13:13:00,13.0,-1.0,-100.00,NW,317,8.0,18.0,52,-99.99,,,-99.99,,2016-02-10 19:13:00,
2016-02-10 13:35:00,13.0,-2.0,-100.00,NNW,328,10.0,18.0,50,-99.99,,,-99.99,,2016-02-10 19:35:00,
2016-02-10 13:54:00,13.0,-2.0,-100.00,NNW,328,10.0,18.0,50,-99.99,,,-99.99,,2016-02-10 19:54:00,
2016-02-10 14:03:00,13.0,-2.0,-100.00,NNW,328,10.0,18.0,50,-99.99,,,-99.99,,2016-02-10 20:03:00,
2016-02-10 14:13:00,13.0,-2.0,-100.00,NNW,328,10.0,18.0,50,-99.99,,,-99.99,,2016-02-10 20:13:00,
2016-02-10 14:34:00,14.0,-2.0,-100.00,NW,316,10.0,15.0,48,-99.99,,,-99.99,,2016-02-10 20:34:00,
2016-02-10 14:44:00,14.0,-2.0,-100.00,NW,316,10.0,15.0,48,-99.99,,,-99.99,,2016-02-10 20:44:00,
2016-02-10 14:55:00,14.0,-2.0,-100.00,NW,316,10.0,15.0,48,-99.99,,,-99.99,,2016-02-10 20:55:00,
2016-02-10 15:13:00,14.0,-2.0,-100.00,NW,316,10.0,15.0,48,-99.99,,,-99.99,,2016-02-10 21:13:00,
2016-02-10 15:34:00,15.0,-2.0,-100.00,NW,325,8.0,15.0,45,-99.99,,,-99.99,,2016-02-10 21:34:00,
2016-02-10 15:44:00,15.0,-2.0,-100.00,NW,325,8.0,15.0,45,-99.99,,,-99.99,,2016-02-10 21:44:00,
2016-02-10 16:03:00,15.0,-2.0,-100.00,NW,325,8.0,15.0,45,-99.99,,,-99.99,,2016-02-10 22:03:00,
2016-02-10 16:13:00,15.0,-2.0,-100.00,NW,325,8.0,15.0,45,-99.99,,,-99.99,,2016-02-10 22:13:00,
2016-02-10 16:44:00,15.0,-2.0,-100.00,NNW,342,9.0,15.0,45,-99.99,,,-99.99,,2016-02-10 22:44:00,
2016-02-10 17:04:00,15.0,-2.0,-100.00,NNW,342,9.0,15.0,45,-99.99,,,-99.99,,2016-02-10 23:04:00,
2016-02-10 17:13:00,15.0,-2.0,-100.00,NNW,342,9.0,15.0,45,-99.99,,,-99.99,,2016-02-10 23:13:00,